Weather Roundup
Issued by NWS

Home | Current Version | Previous Version | Graphics & Text | Print | Product List | Glossary On
Versions: 1 2 3 4 5 6 7 8 9 10 11 12 13 14 15 16 17 18 19 20 21 22 23 24 25 26 27 28 29 30 31 32 33 34 35 36 37 38 39 40 41 42 43 44 45 46 47 48 49 50
000
NZUS93 KARX 171110
HRRWXR

CURRENT HOURLY OBSERVATIONS ACROSS
MUCH OF THE UPPER MISSISSIPPI VALLEY
NATIONAL WEATHER SERVICE LA CROSSE WI
600 AM CDT THU APR 17 2014


...SOUTHEAST MINNESOTA...


CITY           SKY/WX    TMP DP  RH WIND       PRES   REMARKS
ROCHESTER      CLOUDY    32  29  88 NW20      30.01R FOG     WCI  20
ROCHESTER/MAYO CLOUDY    32  31  96 NW17G25   30.02R WCI  21
WINONA         CLOUDY    43  36  75 NW14G21   29.97R
AUSTIN         CLOUDY    30  28  93 NW16G22   30.05R FOG     WCI  19
ALBERT LEA     CLOUDY    30  28  93 NW14G20   30.07R WCI  20
DODGE CENTER   CLOUDY    34  34 100 NW20      30.03R FOG     WCI  22
PRESTON        FOG       33  33  99 NW16G23   30.00R VSB 1   WCI  23
OWATONNA       CLOUDY    30  28  93 NW20      30.08R WCI  18
FARIBAULT      CLOUDY    34  28  80 NW13      30.08R WCI  25
$$

...ELSEWHERE IN MINNESOTA...


CITY           SKY/WX    TMP DP  RH WIND       PRES   REMARKS
MINNEAPOLIS    CLOUDY    29  28  96 NW16      30.10R WCI  17
INTNL FALLS    CLEAR     20   8  60 N6        30.27R WCI  12
DULUTH         FLURRIES  29  25  85 NE9G22    30.11R WCI  20
RED WING       CLOUDY    34  30  86 N9        30.04R FOG     WCI  26
REDWOOD FALLS  CLEAR     22  17  81 NW14      30.19R WCI   9
MANKATO        CLOUDY    28  25  86 NW16G25   30.13R WCI  17
WORTHINGTON    CLEAR     21  16  79 NW13      30.19R WCI   9
FAIRMONT       CLOUDY    27  21  80 NW18      30.16R WCI  13
$$

...SOUTHWEST WISCONSIN...


CITY           SKY/WX    TMP DP  RH WIND       PRES   REMARKS
LA CROSSE      CLOUDY    44  38  79 SW10      29.94R
PRAIRIE DU CHI CLOUDY    38  33  82 SW15      30.01R WCI  29
BOSCOBEL       CLOUDY    43  36  76 SW17G26   29.99R
LONE ROCK      CLOUDY    45  31  58 SW12      29.96R
PLATTEVILLE    CLOUDY    41  37  83 SW21      30.02R
FORT MC COY    CLOUDY    45  31  57 SW3       29.94R
CAMP DOUGLAS   CLOUDY    43  31  62 SE6       29.93R
VIROQUA        CLOUDY    38  38 100 W20       29.94R WCI  27
WIS DELLS      CLOUDY    42  29  61 S12G21    29.96R
$$

...ELSEWHERE IN WISCONSIN...


CITY           SKY/WX    TMP DP  RH WIND       PRES   REMARKS
MILWAUKEE      CLOUDY    40  29  64 SE16G25   30.09F WCI  31
MADISON        MOCLDY    43  29  57 S18       29.99F
GREEN BAY      CLOUDY    35  32  88 SE16      30.07F WCI  25
EAU CLAIRE     CLOUDY    37  35  92 NE6       29.99R WCI  32
BLACK RVR FLS  RAIN      40  36  85 N6        29.95R
MEDFORD        LGT SNOW  32  32  99 E7        29.99R VSB 1   WCI  26
WAUSAU         LGT SNOW  33  32  96 E9        29.99S FOG     WCI  25
WIS RAPIDS     LGT RAIN  40  29  64 E10       29.96F WCI  33
MARSHFIELD     MIX PCPN  35  32  88 NE8       29.97R WCI  29
RICE LAKE      MIX PCPN  32  31  96 N7        30.04R WCI  26
$$

...NORTHEAST IOWA...


CITY           SKY/WX    TMP DP  RH WIND       PRES   REMARKS
WATERLOO       CLOUDY    33  29  85 W14       30.09R WCI  23
DUBUQUE        CLOUDY    37  34  89 W17       30.03R WCI  27
DECORAH        CLOUDY    34  34 100 W10G18    29.98R FOG     WCI  26
MASON CITY     CLOUDY    30  28  92 NW23      30.09R WCI  17
CHARLES CITY   CLOUDY    32  30  93 NW21G28   30.06R WCI  20
OELWEIN        CLOUDY   N/A N/A N/A W16G25    30.06R
$$

...ELSEWHERE IN IOWA...


CITY           SKY/WX    TMP DP  RH WIND       PRES   REMARKS
DES MOINES     CLOUDY    35  28  75 NW14      30.18R WCI  26
IOWA CITY      PTCLDY    37  32  82 W20       30.11R WCI  27
FORT DODGE     CLOUDY    30  25  80 N12G17    30.16R WCI  21
MARSHALLTOWN   CLOUDY    33  29  85 W17       30.13R WCI  22
CEDAR RAPIDS   CLOUDY    36  30  79 W14       30.09R WCI  27
$$

...NORTHERN ILLINOIS...


CITY           SKY/WX    TMP DP  RH WIND       PRES   REMARKS
CHICAGO-OHARE  MOCLDY    42  25  50 S14       30.11S
DUPAGE         CLOUDY    40  27  59 S12       30.10R WCI  33
CHICAGO-MIDWAY MOCLDY    43  26  51 S14       30.13F
MOLINE         CLOUDY    44  36  73 W12       30.08R
ROCKFORD       CLOUDY    40  29  64 S13       30.08R WCI  32
STERLING       CLOUDY    43  30  61 SW5       30.07R
PEORIA         CLEAR     40  31  70 S9        30.12R WCI  34
$$

NOTE: "FAIR" INDICATES FEW OR NO CLOUDS BELOW 12,000 FEET WITH NO
SIGNIFICANT WEATHER AND/OR OBSTRUCTIONS TO VISIBILITY. WIND
SPEEDS ARE IN MILES-PER-HOUR.



USA.gov is the U.S. government's official web portal to all federal, state and local government web resources and services.